Weather in Adagum

Russia / Krasnodar Krai     45°06′19″N   37°42′42″E
temp.,
°C
wind,
m/s
gust,
m/s
humid.,
%
clouds,
%
prec.,
mm/h
press.,
hPa
HPBL,
m
18 may, tue
tue1800:00+13ssw6139399 0.0 1010501
03:00+12s34953 0.0 101090
06:00+13s310937 0.0 1010452
09:00+18ssw68680 0.0 1010898
12:00+20s7105734 0.0 10101150
15:00+20s8116098 0.0 1009814
18:00+17ssw5117397 0.0 1010623
21:00+14s3128986 0.0 1009357
19 may, wed
wed1900:00+13sw3795100 0.2 1008211
03:00+14ssw4998100 12.1 1007621
06:00+12wsw51096100 12.4 1009660
09:00+15sw711846 16.7 10101067
12:00+17sw1013748 0.9 10121387
15:00+17sw10156698 1.6 10131609
18:00+15sw9148099 0.0 10131115
21:00+13ssw8148732 0.1 1015822
20 may, thu
thu2000:00+13ssw714895 0.0 1014706
03:00+13ssw5138638 0.0 1014483
06:00+12ssw36905 0.0 1014118
09:00+19s25565 0.0 1014665
12:00+23se24397 0.0 10131381
15:00+24e45450 0.0 10111289
18:00+21e59680 0.0 1011539
21:00+16e413880 0.0 1010266
21 may, fri
fri2100:00+14ese23925 0.0 100938
03:00+13ese228960 0.0 100912
06:00+15ese228211 0.0 100826
09:00+22e24605 0.0 1007256
12:00+27ene33490 0.0 1007660
15:00+29wnw03425 0.0 1006856
18:00+21nw33749 0.0 1007262
21:00+16w11870 0.0 100711
22 may, sat
sat2200:00+16w01862 0.0 100611
03:00+15sw118698 0.0 100611
06:00+17se1181100 0.0 100613
09:00+22se2565100 0.0 1007358
12:00+25ne115799 0.1 1006395
15:00+27n3257100 0.1 1006821
18:00+22nw3582100 0.0 1006189
21:00+20ssw2288100 0.3 100919